LPE2297 SPJC-SPJR

Flight info

Callsign LPE2297
Flight time 0h 52m
Altitude 37000
Route ATATU DCT BOBUG DCT MANPA DCT 072000S0781340W 071802S0781521W 071554S0781947W 071335S0782434W 071236S0782627W DCT 071148S0782757W
Aircraft A320/M-SDE3FGHIRWY/LB1

Departure

Time 2026-05-06 20:14
Airport Jorge Chávez International Airport (SPJC)

Arrival

Time 2026-05-06 21:06
Airport Mayor General FAP Armando Revoredo Iglesias Airport (SPJR)
Time Latitude Longitude Altitude Speed Heading
2026-05-06 20:06 -12.02558 -77.12040 95 ft 9 kts 294°
2026-05-06 20:06 -12.02563 -77.12086 95 ft 11 kts 246°
2026-05-06 20:07 -12.02586 -77.12152 95 ft 12 kts 276°
2026-05-06 20:07 -12.02529 -77.12206 95 ft 13 kts 334°
2026-05-06 20:07 -12.02436 -77.12252 95 ft 16 kts 334°
2026-05-06 20:07 -12.02335 -77.12303 95 ft 19 kts 333°
2026-05-06 20:08 -12.02222 -77.12358 95 ft 18 kts 334°
2026-05-06 20:08 -12.02128 -77.12400 95 ft 12 kts 358°
2026-05-06 20:08 -12.02072 -77.12334 95 ft 14 kts 65°
2026-05-06 20:08 -12.02025 -77.12227 95 ft 18 kts 66°
2026-05-06 20:09 -12.01965 -77.12096 95 ft 22 kts 63°
2026-05-06 20:09 -12.01891 -77.11943 95 ft 26 kts 64°
2026-05-06 20:09 -12.01826 -77.11815 95 ft 11 kts 62°
2026-05-06 20:09 -12.01765 -77.11816 95 ft 12 kts 334°
2026-05-06 20:10 -12.01680 -77.11858 95 ft 15 kts 334°
2026-05-06 20:10 -12.01576 -77.11910 95 ft 18 kts 334°
2026-05-06 20:10 -12.01450 -77.11974 95 ft 22 kts 333°
2026-05-06 20:10 -12.01317 -77.12042 95 ft 21 kts 324°
2026-05-06 20:11 -12.01227 -77.12145 95 ft 21 kts 317°
2026-05-06 20:11 -12.01092 -77.12223 95 ft 24 kts 332°
2026-05-06 20:11 -12.00945 -77.12298 95 ft 22 kts 334°
2026-05-06 20:11 -12.00845 -77.12289 95 ft 16 kts 57°
2026-05-06 20:12 -12.00810 -77.12208 95 ft 0 kts 69°
2026-05-06 20:12 -12.00809 -77.12207 95 ft 2 kts 69°
2026-05-06 20:12 -12.00790 -77.12136 95 ft 12 kts 109°
2026-05-06 20:13 -12.00878 -77.12074 95 ft 22 kts 153°
2026-05-06 20:13 -12.01214 -77.11910 95 ft 87 kts 154°
2026-05-06 20:13 -12.01950 -77.11548 95 ft 144 kts 155°
2026-05-06 20:13 -12.02923 -77.11075 370 ft 158 kts 155°
2026-05-06 20:14 -12.03912 -77.10587 968 ft 161 kts 156°
2026-05-06 20:14 -12.04931 -77.10082 1698 ft 161 kts 156°
2026-05-06 20:14 -12.06081 -77.09812 2057 ft 185 kts 180°
2026-05-06 20:14 -12.07415 -77.10084 2370 ft 211 kts 200°
2026-05-06 20:15 -12.08695 -77.11015 2753 ft 238 kts 228°
2026-05-06 20:15 -12.09410 -77.12587 3446 ft 253 kts 259°
2026-05-06 20:15 -12.09306 -77.14400 4231 ft 263 kts 283°
2026-05-06 20:15 -12.08474 -77.16087 5039 ft 272 kts 307°
2026-05-06 20:16 -12.07033 -77.17330 5890 ft 278 kts 331°
2026-05-06 20:16 -12.05255 -77.18138 6820 ft 282 kts 337°
2026-05-06 20:16 -12.03407 -77.18921 7722 ft 287 kts 337°
2026-05-06 20:16 -12.01550 -77.19735 8603 ft 292 kts 336°
2026-05-06 20:17 -11.99695 -77.20567 9443 ft 296 kts 336°
2026-05-06 20:17 -11.97782 -77.21434 10274 ft 301 kts 336°
2026-05-06 20:17 -11.95788 -77.22346 10603 ft 325 kts 335°
2026-05-06 20:17 -11.93689 -77.23334 11083 ft 340 kts 335°
2026-05-06 20:18 -11.91518 -77.24365 11730 ft 349 kts 335°
2026-05-06 20:18 -11.89281 -77.25418 12450 ft 356 kts 335°
2026-05-06 20:18 -11.87008 -77.26473 13193 ft 361 kts 336°
2026-05-06 20:18 -11.84705 -77.27532 13933 ft 366 kts 336°
2026-05-06 20:19 -11.82368 -77.28600 14661 ft 370 kts 336°
2026-05-06 20:19 -11.80017 -77.29671 15371 ft 373 kts 336°
2026-05-06 20:19 -11.77599 -77.30770 16081 ft 377 kts 336°
2026-05-06 20:19 -11.75194 -77.31861 16757 ft 380 kts 336°
2026-05-06 20:20 -11.72773 -77.32957 17410 ft 383 kts 336°
2026-05-06 20:20 -11.70332 -77.34062 18045 ft 387 kts 336°
2026-05-06 20:20 -11.67851 -77.35184 18675 ft 390 kts 336°
2026-05-06 20:20 -11.65371 -77.36304 19295 ft 393 kts 336°
2026-05-06 20:21 -11.62859 -77.37438 19908 ft 395 kts 336°
2026-05-06 20:21 -11.60349 -77.38569 20503 ft 398 kts 336°
2026-05-06 20:21 -11.57784 -77.39724 21087 ft 401 kts 336°
2026-05-06 20:21 -11.55219 -77.40879 21645 ft 403 kts 336°
2026-05-06 20:22 -11.52665 -77.42028 22184 ft 406 kts 336°
2026-05-06 20:22 -11.50054 -77.43202 22711 ft 408 kts 336°
2026-05-06 20:22 -11.47459 -77.44368 23212 ft 410 kts 336°
2026-05-06 20:22 -11.44854 -77.45538 23700 ft 413 kts 336°
2026-05-06 20:23 -11.42182 -77.46736 24181 ft 415 kts 336°
2026-05-06 20:23 -11.39548 -77.47918 24641 ft 417 kts 336°
2026-05-06 20:23 -11.36878 -77.49116 25098 ft 419 kts 336°
2026-05-06 20:23 -11.34196 -77.50318 25541 ft 420 kts 337°
2026-05-06 20:24 -11.31507 -77.51523 25972 ft 422 kts 337°
2026-05-06 20:24 -11.28851 -77.52711 26384 ft 424 kts 337°
2026-05-06 20:24 -11.26138 -77.53924 26790 ft 425 kts 337°
2026-05-06 20:24 -11.23425 -77.55136 27181 ft 426 kts 337°
2026-05-06 20:25 -11.20680 -77.56361 27563 ft 428 kts 338°
2026-05-06 20:25 -11.17954 -77.57578 27929 ft 429 kts 338°
2026-05-06 20:25 -11.15237 -77.58789 28280 ft 431 kts 338°
2026-05-06 20:25 -11.12446 -77.60033 28629 ft 432 kts 338°
2026-05-06 20:26 -11.09712 -77.61251 28969 ft 433 kts 338°
2026-05-06 20:26 -11.06923 -77.62493 29321 ft 435 kts 338°
2026-05-06 20:26 -11.04157 -77.63724 29660 ft 436 kts 338°
2026-05-06 20:26 -11.01371 -77.64964 29984 ft 437 kts 338°
2026-05-06 20:27 -10.98572 -77.66208 30303 ft 438 kts 338°
2026-05-06 20:27 -10.95782 -77.67445 30603 ft 440 kts 338°
2026-05-06 20:27 -10.92961 -77.68695 30892 ft 442 kts 338°
2026-05-06 20:27 -10.90131 -77.69950 31198 ft 443 kts 338°
2026-05-06 20:28 -10.87321 -77.71195 31517 ft 444 kts 338°
2026-05-06 20:28 -10.84469 -77.72458 31860 ft 444 kts 338°
2026-05-06 20:28 -10.81654 -77.73704 32204 ft 444 kts 338°
2026-05-06 20:28 -10.78806 -77.74965 32553 ft 443 kts 338°
2026-05-06 20:29 -10.75975 -77.76218 32905 ft 443 kts 338°
2026-05-06 20:29 -10.73167 -77.77460 33253 ft 442 kts 338°
2026-05-06 20:29 -10.70334 -77.78712 33593 ft 441 kts 338°
2026-05-06 20:29 -10.67548 -77.79942 33926 ft 440 kts 338°
2026-05-06 20:30 -10.64741 -77.81183 34259 ft 440 kts 338°
2026-05-06 20:30 -10.59130 -77.83660 34878 ft 438 kts 337°
2026-05-06 20:30 -10.56323 -77.84899 35171 ft 438 kts 337°
2026-05-06 20:31 -10.53543 -77.86126 35452 ft 437 kts 337°
2026-05-06 20:31 -10.50756 -77.87356 35728 ft 437 kts 337°
2026-05-06 20:31 -10.47964 -77.88589 35996 ft 437 kts 337°
2026-05-06 20:31 -10.45144 -77.89834 36268 ft 436 kts 337°
2026-05-06 20:32 -10.42392 -77.91048 36523 ft 436 kts 337°
2026-05-06 20:32 -10.39604 -77.92278 36792 ft 435 kts 336°
2026-05-06 20:32 -10.36810 -77.93511 37029 ft 435 kts 336°
2026-05-06 20:33 -10.31283 -77.95950 37109 ft 432 kts 336°
2026-05-06 20:33 -10.25744 -77.98395 37118 ft 432 kts 336°
2026-05-06 20:34 -10.20138 -78.00504 37120 ft 431 kts 345°
2026-05-06 20:34 -10.14180 -78.01338 37123 ft 432 kts 356°
2026-05-06 20:35 -10.08175 -78.01643 37126 ft 433 kts 356°
2026-05-06 20:35 -10.02153 -78.01942 37129 ft 433 kts 356°
2026-05-06 20:36 -9.96115 -78.02244 37132 ft 433 kts 356°
2026-05-06 20:36 -9.90121 -78.02545 37135 ft 433 kts 356°
2026-05-06 20:37 -9.84099 -78.02847 37147 ft 433 kts 356°
2026-05-06 20:37 -9.78083 -78.03149 37149 ft 433 kts 356°
2026-05-06 20:38 -9.72072 -78.03451 37149 ft 433 kts 356°
2026-05-06 20:38 -9.66049 -78.03754 37148 ft 433 kts 356°
2026-05-06 20:39 -9.61015 -78.04006 37147 ft 433 kts 356°
2026-05-06 20:39 -9.54002 -78.04358 37145 ft 433 kts 356°
2026-05-06 20:40 -9.48948 -78.04612 37142 ft 433 kts 356°
2026-05-06 20:40 -9.42934 -78.04913 37137 ft 433 kts 356°
2026-05-06 20:41 -9.36917 -78.05215 37130 ft 433 kts 356°
2026-05-06 20:41 -9.30908 -78.05517 37119 ft 433 kts 356°
2026-05-06 20:42 -9.24869 -78.05819 37107 ft 433 kts 356°
2026-05-06 20:42 -9.18849 -78.06121 37097 ft 434 kts 356°
2026-05-06 20:43 -9.12798 -78.06424 37082 ft 434 kts 356°
2026-05-06 20:43 -9.06799 -78.06725 37071 ft 434 kts 356°
2026-05-06 20:44 -9.00756 -78.07028 37064 ft 435 kts 356°
2026-05-06 20:44 -8.94685 -78.07332 37058 ft 435 kts 356°
2026-05-06 20:45 -8.88636 -78.07634 37054 ft 435 kts 356°
2026-05-06 20:45 -8.82573 -78.07937 37049 ft 435 kts 356°
2026-05-06 20:46 -8.76528 -78.08240 37046 ft 435 kts 356°
2026-05-06 20:46 -8.70476 -78.08542 37043 ft 436 kts 356°
2026-05-06 20:47 -8.64446 -78.08843 37039 ft 436 kts 356°
2026-05-06 20:47 -8.58374 -78.09147 37036 ft 436 kts 356°
2026-05-06 20:48 -8.52291 -78.09451 37032 ft 437 kts 356°
2026-05-06 20:48 -8.46224 -78.09754 36905 ft 437 kts 356°
2026-05-06 20:48 -8.43186 -78.09907 36196 ft 440 kts 356°
2026-05-06 20:49 -8.40134 -78.10060 35653 ft 438 kts 356°
2026-05-06 20:49 -8.37090 -78.10212 35087 ft 436 kts 356°
2026-05-06 20:49 -8.34063 -78.10364 34540 ft 433 kts 356°
2026-05-06 20:49 -8.31063 -78.10514 33948 ft 432 kts 356°
2026-05-06 20:50 -8.28074 -78.10664 33395 ft 429 kts 357°
2026-05-06 20:50 -8.25103 -78.10818 32846 ft 426 kts 357°
2026-05-06 20:50 -8.22147 -78.10972 32284 ft 423 kts 358°
2026-05-06 20:50 -8.19213 -78.11124 31722 ft 420 kts 358°
2026-05-06 20:51 -8.16299 -78.11274 31156 ft 417 kts 359°
2026-05-06 20:51 -8.13366 -78.11425 30557 ft 415 kts 359°
2026-05-06 20:51 -8.10525 -78.11570 29976 ft 412 kts 360°
2026-05-06 20:51 -8.07667 -78.11713 29391 ft 409 kts
2026-05-06 20:52 -8.04844 -78.11845 28859 ft 404 kts
2026-05-06 20:52 -8.02022 -78.11976 28319 ft 400 kts 360°
2026-05-06 20:52 -7.99262 -78.12104 27772 ft 396 kts 360°
2026-05-06 20:52 -7.96522 -78.12233 27210 ft 393 kts 359°
2026-05-06 20:53 -7.93783 -78.12363 26650 ft 390 kts 359°
2026-05-06 20:53 -7.91083 -78.12493 26100 ft 387 kts 359°
2026-05-06 20:53 -7.88398 -78.12624 25548 ft 383 kts 358°
2026-05-06 20:53 -7.85755 -78.12753 25017 ft 380 kts 358°
2026-05-06 20:54 -7.83141 -78.12882 24492 ft 376 kts 358°
2026-05-06 20:54 -7.80547 -78.13010 23975 ft 372 kts 358°
2026-05-06 20:54 -7.77974 -78.13139 23463 ft 368 kts 357°
2026-05-06 20:54 -7.75396 -78.13271 22969 ft 364 kts 357°
2026-05-06 20:55 -7.72879 -78.13399 22491 ft 361 kts 357°
2026-05-06 20:55 -7.70392 -78.13526 22011 ft 358 kts 357°
2026-05-06 20:55 -7.67910 -78.13651 21543 ft 355 kts 358°
2026-05-06 20:55 -7.65456 -78.13775 21089 ft 352 kts 358°
2026-05-06 20:56 -7.63037 -78.13896 20659 ft 348 kts 358°
2026-05-06 20:56 -7.60622 -78.14017 20219 ft 346 kts 358°
2026-05-06 20:56 -7.58212 -78.14230 19712 ft 346 kts 348°
2026-05-06 20:56 -7.55899 -78.14903 19209 ft 345 kts 342°
2026-05-06 20:57 -7.53647 -78.15668 18726 ft 345 kts 342°
2026-05-06 20:57 -7.51379 -78.16438 18241 ft 344 kts 342°
2026-05-06 20:57 -7.49103 -78.17200 17664 ft 345 kts 342°
2026-05-06 20:57 -7.46775 -78.17971 16715 ft 359 kts 342°
2026-05-06 20:58 -7.44390 -78.18755 16130 ft 360 kts 342°
2026-05-06 20:58 -7.42016 -78.19532 15627 ft 358 kts 342°
2026-05-06 20:58 -7.39625 -78.20314 15112 ft 356 kts 342°
2026-05-06 20:58 -7.37283 -78.21078 14615 ft 354 kts 343°
2026-05-06 20:59 -7.35020 -78.21950 14197 ft 350 kts 334°
2026-05-06 20:59 -7.33105 -78.23403 13921 ft 342 kts 313°
2026-05-06 20:59 -7.31729 -78.25326 13574 ft 337 kts 302°
2026-05-06 20:59 -7.30526 -78.27338 13190 ft 333 kts 301°
2026-05-06 21:00 -7.29364 -78.29339 13086 ft 320 kts 300°
2026-05-06 21:00 -7.28336 -78.31281 13003 ft 307 kts 297°
2026-05-06 21:00 -7.27410 -78.33152 12908 ft 292 kts 297°
2026-05-06 21:00 -7.26542 -78.34918 12616 ft 273 kts 297°
2026-05-06 21:01 -7.25720 -78.36595 12247 ft 257 kts 297°
2026-05-06 21:01 -7.24955 -78.38155 11887 ft 241 kts 297°
2026-05-06 21:01 -7.24241 -78.39614 11540 ft 222 kts 297°
2026-05-06 21:01 -7.23561 -78.40941 11184 ft 206 kts 298°
2026-05-06 21:02 -7.22916 -78.42156 10826 ft 188 kts 299°
2026-05-06 21:02 -7.22318 -78.43280 10427 ft 175 kts 300°
2026-05-06 21:02 -7.21703 -78.44301 10118 ft 169 kts 304°
2026-05-06 21:02 -7.21045 -78.45267 9918 ft 168 kts 307°
2026-05-06 21:03 -7.20441 -78.46002 9855 ft 166 kts 317°
2026-05-06 21:04 -7.20229 -78.46187 9842 ft 167 kts 323°
2026-05-06 21:04 -7.19186 -78.46719 9628 ft 166 kts 337°
2026-05-06 21:04 -7.18145 -78.47181 9431 ft 163 kts 338°
2026-05-06 21:04 -7.17087 -78.47620 9225 ft 165 kts 338°
2026-05-06 21:05 -7.16036 -78.48063 9042 ft 163 kts 338°
2026-05-06 21:05 -7.14997 -78.48501 8851 ft 162 kts 339°
2026-05-06 21:05 -7.14030 -78.48904 8805 ft 129 kts 339°
2026-05-06 21:05 -7.13370 -78.49182 8805 ft 77 kts 337°
2026-05-06 21:06 -7.13043 -78.49319 8805 ft 25 kts 338°
2026-05-06 21:06 -7.12963 -78.49377 8805 ft 15 kts 293°
2026-05-06 21:06 -7.12906 -78.49389 8805 ft 9 kts 99°
2026-05-06 21:06 -7.12959 -78.49354 8805 ft 10 kts 155°
2026-05-06 21:07 -7.13027 -78.49323 8805 ft 11 kts 156°
2026-05-06 21:07 -7.13103 -78.49291 8805 ft 12 kts 158°
2026-05-06 21:07 -7.13185 -78.49257 8805 ft 14 kts 158°
2026-05-06 21:07 -7.13279 -78.49218 8805 ft 15 kts 158°
2026-05-06 21:08 -7.13382 -78.49175 8805 ft 17 kts 157°
2026-05-06 21:08 -7.13494 -78.49128 8805 ft 18 kts 157°
2026-05-06 21:08 -7.13616 -78.49076 8805 ft 19 kts 156°
2026-05-06 21:08 -7.13742 -78.49020 8805 ft 20 kts 156°
2026-05-06 21:09 -7.13875 -78.48963 8805 ft 21 kts 158°
2026-05-06 21:09 -7.14016 -78.48904 8805 ft 23 kts 158°
2026-05-06 21:09 -7.14142 -78.48853 8805 ft 12 kts 158°
2026-05-06 21:09 -7.14201 -78.48859 8805 ft 9 kts 231°
2026-05-06 21:10 -7.14228 -78.48888 8805 ft 6 kts 194°
2026-05-06 21:10 -7.14264 -78.48874 8805 ft 5 kts 161°
2026-05-06 21:10 -7.14289 -78.48885 8805 ft 4 kts 236°
2026-05-06 21:10 -7.14296 -78.48901 8805 ft 1 kts 265°
2026-05-06 21:11 -7.14294 -78.48905 8805 ft 1 kts 300°
2026-05-06 21:11 -7.14284 -78.48912 8805 ft 2 kts 330°
2026-05-06 21:11 -7.14273 -78.48917 8805 ft 0 kts 334°